Location: Auckland
(36.8670°S, 174.7670°E)
Time: 09:17:11
(UTC+13:00)

CZ-2C R/B - Pass Details

Date: 24 January 2019
Orbit: 785 x 870 km, 98.3° (Epoch: 15 October)

Event Time Altitude Azimuth Distance (km) Brightness Sun altitude
Exits shadow 21:47:36 17° 42° (NE) 2,017 4.0 -12.8°
Maximum altitude 21:51:33 46° 108° (ESE) 1,119 3.1 -13.4°
Drops below altitude 10° 21:56:42 10° 179° (S) 2,441 5.6 -14.2°
Sets 21:59:07 0° 185° (S) 3,368 6.5 -14.6°
